Location: Maignaut
(43.8886°N, 0.4051°E)
Time: 19:28:48
(UTC+00:00)

USA 267 - Pass Details

Date: 17 January 2021
Orbit: 1102 x 1106 km, 123.0° (Epoch: 22 February)

Event Time Altitude Azimuth Distance (km) Brightness Sun altitude
Exits shadow 18:29:54 27° 75° (ENE) 1,981 4.0 -17.8°
Maximum altitude 18:33:08 46° 131° (SE) 1,449 3.6 -18.4°
Drops below altitude 10° 18:39:21 10° 203° (SSW) 2,953 5.9 -19.5°
Sets 18:41:57 0° 210° (SSW) 3,908 6.7 -20.0°
